#timestamp,LO_Frequency,Hit,StdDev 
1597001715.4,286047018.0,P
1597001735.3,286047017.3,P
1597001755.1,286047018.5,P
1597001775.8,286047020.4,Y
1597001795.7,286046999.8,P
1597001815.5,286046999.8,N
1597001835.4,286047002.7,N
1597001855.2,286047002.8,N
1597001875.0,286047002.5,N
1597001875.9,286047002.5,N
1597001895.8,286047002.5,N
1597001915.6,286047002.1,N
1597001935.4,286047002.2,N
1597001955.3,286047001.5,N
1597001975.1,286047003.7,N
1597001995.9,286047004.2,N
1597002015.7,286047004.1,N
1597002035.5,286047003.1,N
1597002055.4,286047003.6,N
1597002075.2,286047005.8,N
1597002095.0,286047005.7,N
1597002095.9,286047005.7,N
1597002115.8,286047005.5,N
1597002135.6,286047005.9,N
1597002155.5,286047005.8,N
1597002175.3,286047005.0,N
1597002195.1,286047004.5,N
1597002215.9,286047007.4,N
1597002235.7,286047007.4,N
1597002255.5,286047007.4,N
1597002275.4,286047005.3,N
1597002295.2,286047004.5,N
1597002315.1,286047007.3,N
1597002316.0,286047007.3,N
1597002335.8,286047006.9,Y
1597002355.6,286047003.1,P
1597002375.5,286047003.8,P
1597002395.3,286047004.2,P
1597002415.2,286047005.6,Y
1597002435.0,286047000.3,P
1597002435.9,286047000.3,N
1597002455.7,286047000.6,N
1597002475.6,286046998.1,N
1597002495.4,286046999.7,N
1597002515.3,286046999.7,N
1597002535.1,286047000.2,N
1597002536.0,286047000.2,N
1597002555.8,286047002.3,N
1597002575.7,286047002.8,N
1597002595.5,286047002.3,N
1597002615.4,286047000.5,N
1597002635.2,286047000.5,N
1597002655.0,286047000.1,N
1597002655.9,286047000.1,N
1597002675.8,286047002.3,N
1597002695.6,286047000.5,N
1597002715.4,286047002.3,N
1597002735.3,286047001.7,N
1597002755.1,286047004.3,Y
1597002775.9,286047002.5,P
1597002795.7,286047002.8,P
1597002815.5,286047001.5,N
1597002835.4,286047001.3,N
1597002855.2,286047004.1,Y
1597002875.0,286047002.7,P
1597002875.9,286047002.7,P
1597002895.8,286047001.9,P
1597002915.6,286047001.6,Y
1597002935.5,286046999.8,P
1597002955.3,286047000.6,N
1597002975.1,286047002.8,N
1597002995.9,286046999.8,N
1597003015.7,286047000.1,N
1597003035.6,286047000.0,N
1597003055.4,286046999.9,N
1597003075.2,286047000.3,N
1597003095.1,286047002.8,N
1597003096.0,286047002.8,N
1597003115.8,286047002.1,N
1597003135.6,286047002.1,N
1597003155.5,286047001.8,N
1597003175.3,286047001.7,N
1597003195.2,286047002.2,N
